Theta_e
282 281 281 281 281 281 281 281 281 281 281 281 281 281 280 280 279 278 278 278 279 280 280 280 280 282 284 285 285 286 286 286 285 287 289 290 285 285 286 287 288 287 289
281 281 280 280 280 279 279 280 281 280 281 280 280 280 280 280 280 279 278 277 277 278 278 278 279 281 280 282 284 284 285 286 285 284 287 287 284 283 285 285 286 287 287
280 279 279 279 279 278 279 279 280 280 280 280 280 279 279 280 279 279 278 278 278 277 277 278 279 279 280 280 280 282 283 285 285 284 284 286 287 281 283 283 284 285 286
278 278 278 278 278 278 279 279 279 279 279 278 278 279 279 279 279 279 279 278 278 278 278 278 279 279 280 280 280 280 281 281 282 283 283 284 285 284 282 282 281 282 284
277 278 278 279 279 278 278 278 279 279 279 279 279 279 279 279 279 278 278 278 278 278 278 279 279 279 282 282 280 280 280 280 280 280 281 281 283 281 280 282 282 284 282
276 277 277 277 277 277 276 276 275 275 274 275 274 274 275 276 279 280 280 278 278 278 277 278 278 278 279 282 282 284 284 281 281 280 280 280 281 283 284 282 283 281 280
275 275 274 274 273 273 273 272 271 271 271 271 271 271 271 271 275 276 276 275 275 275 276 278 278 278 278 278 280 281 281 283 284 282 281 281 281 283 283 284 282 282 282
272 271 271 271 269 270 269 268 268 268 268 267 267 267 267 268 272 273 273 271 271 271 272 273 274 276 277 277 276 276 276 277 278 279 279 281 283 285 285 285 285 283 284
270 270 269 268 266 267 265 265 265 265 264 264 265 264 264 264 269 270 271 269 269 269 270 271 271 272 275 277 276 275 274 275 278 280 281 283 286 287 287 285 284 283 281
268 268 267 266 264 263 263 262 263 262 263 263 263 263 263 262 267 269 270 268 266 268 269 270 272 272 274 276 273 272 271 272 274 274 275 278 282 283 287 286 284 282 282
266 266 265 264 262 262 261 261 260 260 261 260 260 261 261 262 263 268 270 268 267 267 267 268 270 273 274 275 276 273 273 275 275 275 275 277 278 280 282 283 285 284 283
264 263 261 260 260 261 259 259 259 259 258 258 259 259 261 263 265 267 270 271 271 268 267 268 269 272 273 274 273 274 275 275 272 272 273 275 276 278 281 282 284 284 286
258 257 257 258 259 260 258 258 258 258 258 258 259 259 259 262 262 267 270 271 271 268 268 269 273 274 275 274 274 273 272 270 269 269 271 272 275 279 281 282 283 284 284
254 256 259 259 259 259 260 259 258 258 258 258 258 259 260 263 265 267 267 268 270 270 270 268 270 272 273 273 271 272 271 270 269 269 270 271 274 275 280 282 282 282 282
256 259 259 259 259 259 260 259 260 261 262 262 264 264 264 264 266 271 272 271 272 273 273 272 271 269 267 265 266 266 267 267 268 270 270 270 271 274 280 281 282 282 280
256 258 258 259 259 260 259 259 264 266 267 269 270 268 267 271 272 274 274 275 275 276 272 270 269 268 268 268 268 267 267 267 268 269 270 271 273 275 277 278 280 280 280
254 257 258 259 258 258 258 258 257 260 265 266 268 269 270 271 271 272 273 274 274 272 265 265 265 266 266 267 267 267 267 267 269 270 271 272 276 277 276 276 278 280 279
253 257 257 257 257 257 257 257 257 256 256 258 263 266 268 269 270 272 271 270 261 263 263 263 263 264 265 266 266 266 266 267 268 269 269 270 272 275 277 278 278 277 278
253 254 255 257 257 256 256 256 257 257 257 258 259 262 263 267 269 267 267 261 260 260 261 261 263 263 265 268 267 266 265 265 266 267 270 271 273 275 277 279 279 278 277
251 255 257 255 255 254 255 255 256 256 257 257 258 259 260 264 259 259 260 259 259 260 261 261 262 263 266 268 267 267 267 267 267 267 268 271 273 277 277 277 276 275 274
251 252 255 254 252 253 253 254 255 256 257 257 258 259 268 260 259 259 259 260 260 260 261 261 262 263 265 266 267 269 270 270 270 270 272 273 274 273 274 275 274 273 271
249 249 251 249 252 252 251 254 255 255 256 256 257 258 265 259 259 260 260 260 261 262 262 262 263 264 265 266 266 266 267 267 268 269 269 270 271 271 271 271 270 270 269
250 250 250 249 250 252 251 252 253 254 255 255 256 256 257 258 259 259 260 261 261 262 263 263 264 265 266 266 267 267 266 267 268 269 269 269 269 269 269 269 269 268 268
250 250 249 248 248 249 249 251 252 253 253 254 254 254 255 256 258 259 260 261 261 262 263 264 264 265 266 267 267 267 268 268 268 268 269 268 267 268 268 267 267 267 267
248 250 249 248 246 247 248 249 251 249 251 252 253 253 254 255 256 258 259 260 260 261 262 263 264 265 266 267 268 268 268 267 268 268 268 267 267 266 266 266 266 266 266
250 250 250 249 248 247 245 247 249 250 251 252 253 253 253 254 255 257 258 259 259 260 260 262 263 264 266 267 268 271 271 270 267 267 267 267 266 265 265 265 265 264 264
Wind_Speed
3 4 4 5 6 5 5 6 6 7 8 9 10 10 9 9 6 6 6 7 7 8 8 7 8 6 6 6 5 6 8 8 14 10 11 9 6 8 8 9 11 11 11
5 4 5 6 6 6 6 7 7 7 7 8 8 9 10 11 11 10 10 8 7 10 10 9 11 8 8 7 7 10 9 9 10 17 11 11 9 7 8 11 10 10 11
5 5 6 6 6 6 7 7 6 7 8 10 10 11 12 12 12 12 12 13 12 11 11 11 13 11 12 10 9 9 9 8 9 11 12 9 10 4 8 8 8 11 9
4 4 5 6 6 6 6 6 6 7 8 9 9 11 11 12 13 13 13 14 14 14 14 13 13 13 14 13 11 12 10 9 10 11 12 10 9 7 6 7 7 7 10
6 6 6 6 6 6 9 10 10 11 11 11 13 13 12 12 10 13 13 14 15 16 16 16 16 16 21 20 12 13 11 10 10 10 12 10 10 6 7 6 10 9 9
6 6 7 8 9 9 10 11 12 14 14 15 15 16 17 13 25 30 27 18 19 19 19 18 18 19 20 29 30 29 22 14 16 13 13 14 15 10 7 9 11 9 11
6 6 7 7 7 9 11 13 14 15 15 15 16 15 17 17 28 31 32 19 20 20 20 18 16 14 18 18 23 29 27 27 29 20 21 18 17 14 9 11 13 12 14
4 5 4 6 10 12 12 13 14 13 15 15 16 16 17 15 28 30 31 20 18 20 20 21 20 20 18 20 19 19 19 19 18 15 19 20 19 17 14 13 14 15 14
6 5 7 9 11 12 13 14 14 14 14 14 14 15 16 16 27 30 27 17 17 19 18 19 19 21 27 35 22 19 18 19 22 34 36 38 36 34 27 11 13 14 12
5 8 9 9 9 13 14 14 13 12 15 13 15 14 17 17 24 28 25 13 16 14 16 17 24 22 31 32 23 21 22 21 20 21 20 25 30 26 33 24 17 15 13
5 8 8 9 11 12 14 12 13 13 14 13 15 14 15 16 17 26 26 15 13 13 14 13 12 27 31 31 32 19 20 19 21 21 19 17 17 18 16 16 17 17 17
6 7 9 10 9 10 12 12 13 13 13 14 13 12 11 13 19 23 27 28 26 16 16 14 15 30 33 33 28 31 35 33 17 16 15 14 15 16 16 16 18 16 18
4 8 9 10 9 10 11 12 10 11 11 12 11 12 12 11 12 27 30 31 30 21 15 22 35 36 37 30 30 33 31 15 14 14 15 16 16 15 17 16 16 18 18
7 9 8 9 10 9 8 8 8 10 10 11 12 13 13 12 11 11 13 14 22 20 25 21 25 30 33 29 21 19 13 13 13 15 16 15 14 15 15 12 12 13 14
6 8 8 7 9 10 9 9 9 12 13 13 12 13 14 13 13 26 25 16 15 18 22 14 12 11 12 12 12 14 12 13 13 13 13 14 16 18 17 9 10 11 12
7 7 7 8 8 8 9 12 19 22 26 27 29 22 13 26 33 33 33 33 33 34 16 14 13 13 14 14 14 12 12 14 13 13 14 14 19 15 7 7 9 12 12
5 8 7 8 8 8 9 9 13 21 25 22 23 27 29 29 30 31 31 32 30 26 11 13 14 14 14 14 13 12 12 11 13 12 11 13 10 9 10 10 10 12 11
5 8 6 6 7 8 8 9 9 10 13 18 20 24 26 28 30 30 28 23 12 12 10 12 14 14 14 14 13 11 10 10 11 10 10 12 12 10 8 10 11 12 9
5 3 4 6 7 8 8 8 9 10 10 11 14 18 18 28 25 24 24 9 11 11 11 12 13 14 14 12 10 9 10 10 11 10 10 10 11 10 12 9 9 14 12
4 6 6 5 6 7 6 7 8 8 9 9 10 10 14 12 12 13 11 10 10 10 11 12 13 13 13 13 9 9 9 10 10 9 11 11 12 11 9 7 6 7 8
2 2 6 5 5 5 5 6 8 8 9 9 10 10 25 11 10 10 10 10 10 10 11 11 12 12 12 12 11 9 6 8 10 11 10 7 3 0 2 3 5 6 8
2 2 4 4 5 5 3 6 7 7 8 9 10 9 23 8 9 10 11 11 11 10 9 11 11 11 11 11 11 10 8 7 6 5 4 4 4 4 5 6 7 8 8
2 3 3 4 3 6 3 4 5 6 7 8 8 9 10 10 10 10 11 11 11 11 10 10 11 11 10 10 10 9 8 8 6 5 5 5 5 6 6 7 7 8 7
3 3 3 3 3 4 2 5 6 6 7 8 7 8 9 9 10 12 11 11 11 11 11 10 11 15 14 10 9 9 8 8 7 6 7 6 7 8 8 8 8 11 9
3 3 2 3 3 4 4 4 6 5 5 6 7 7 8 9 9 10 10 10 10 11 12 12 11 15 18 21 12 12 13 14 12 10 7 9 10 11 9 8 10 10 11
3 4 3 3 3 4 3 4 5 5 6 7 6 7 7 8 8 9 10 10 10 10 13 10 13 19 18 15 19 19 14 14 12 14 8 8 9 9 9 11 14 9 11
Wind_Direction
338 333 333 325 327 328 321 313 317 323 332 333 328 323 323 315 296 276 270 280 279 286 290 288 287 282 282 276 259 253 250 246 263 268 275 278 250 236 243 239 235 233 237
250 263 270 283 286 284 294 294 298 290 291 285 288 291 296 303 305 308 306 301 271 286 286 282 278 286 275 262 259 263 258 252 261 271 263 269 253 243 246 239 239 236 233
291 282 288 292 298 279 272 273 275 275 276 282 281 282 287 290 291 291 293 295 296 288 282 274 273 270 270 269 259 260 260 259 258 264 268 258 266 219 249 253 241 243 240
312 298 304 321 319 306 298 292 283 277 282 278 268 272 275 275 277 281 282 282 278 275 277 271 268 262 259 260 260 263 264 261 261 261 266 262 255 242 237 257 252 233 241
15 8 356 340 330 326 330 329 326 321 314 308 304 299 293 284 282 286 280 276 273 271 266 263 264 262 261 265 265 265 259 260 263 261 263 264 256 236 231 238 248 252 240
7 2 348 339 336 335 332 329 320 312 309 307 304 302 299 294 297 300 299 293 287 279 275 270 268 268 268 273 272 267 263 261 261 260 264 262 258 247 237 233 246 238 257
2 352 337 332 334 326 319 314 310 308 307 303 303 304 300 300 303 300 298 292 289 285 283 284 277 270 269 268 270 273 276 274 269 269 265 258 265 258 250 244 238 238 244
341 321 327 334 320 318 313 308 307 306 307 305 303 302 297 297 301 304 301 294 290 288 288 287 285 286 279 272 268 267 266 264 262 262 262 265 263 263 251 247 252 243 246
316 322 329 324 314 312 308 308 308 304 300 298 294 297 297 296 298 299 300 296 287 286 285 283 283 284 283 279 281 277 272 267 270 270 270 269 263 258 254 254 244 248 243
325 323 316 312 306 304 302 303 300 296 294 297 294 292 290 289 293 298 298 290 287 285 281 281 280 280 279 278 274 272 271 269 269 269 266 264 265 258 254 245 244 243 242
315 304 302 305 302 295 294 298 297 296 295 294 291 290 286 283 286 292 295 291 290 288 283 283 280 284 288 287 285 277 275 276 269 263 258 254 252 251 246 238 236 234 240
297 300 295 288 283 289 287 291 292 293 295 294 293 290 284 281 280 285 291 292 290 289 286 281 280 283 284 281 277 272 271 271 269 273 278 270 245 240 243 238 230 231 237
290 285 278 280 279 281 284 288 293 292 293 295 295 293 290 283 274 277 281 283 283 279 271 270 273 278 278 282 288 285 282 274 274 269 269 262 258 270 238 234 230 233 238
280 280 284 291 294 286 283 288 290 290 293 292 289 287 285 283 288 292 280 274 269 267 266 267 262 264 266 265 268 266 262 258 257 257 259 261 268 263 252 218 227 233 234
269 288 296 291 295 296 290 293 290 286 285 288 293 297 301 303 298 296 304 299 293 293 298 291 285 266 256 251 253 252 251 249 246 255 263 256 257 256 241 216 227 227 230
302 305 301 302 300 298 300 303 300 302 304 306 306 306 300 301 305 308 314 311 307 304 297 293 293 289 282 277 268 257 245 245 250 254 255 258 256 229 234 217 228 237 229
264 291 300 300 300 302 306 306 310 315 312 313 316 318 317 315 322 317 314 318 322 324 311 302 296 293 287 280 275 267 260 249 252 254 269 254 280 213 214 224 231 232 212
261 273 283 293 297 299 303 305 304 304 312 319 325 324 328 324 321 320 330 332 320 318 306 304 301 297 292 282 274 264 262 255 253 255 262 267 271 278 259 245 224 213 212
270 268 284 293 296 292 296 301 302 302 302 302 310 321 317 318 328 336 334 321 316 315 315 310 306 303 299 290 268 260 251 256 256 259 259 263 263 263 256 247 210 203 194
254 276 298 294 294 293 298 307 306 305 305 308 313 317 312 336 336 332 331 326 321 316 316 315 315 313 315 323 285 264 255 250 252 252 255 257 262 257 246 209 189 177 168
249 285 284 286 281 280 296 306 301 305 307 312 312 317 333 347 323 325 325 326 324 322 323 323 323 323 324 328 331 340 306 269 253 256 254 251 250 156 94 122 122 126 126
251 257 272 266 285 286 291 301 300 302 309 314 317 320 337 331 330 330 332 331 329 327 325 324 326 331 332 332 335 338 342 348 350 353 8 21 40 64 84 94 102 108 117
264 264 279 279 273 285 295 294 294 306 313 313 316 326 330 332 331 333 333 332 331 331 331 332 333 335 341 340 341 342 345 348 352 2 26 39 47 59 72 86 97 103 108
265 275 282 281 296 285 289 305 304 306 310 311 319 323 324 325 327 330 333 332 333 332 335 339 344 345 347 349 350 353 358 3 4 16 37 56 61 67 73 78 85 96 97
251 276 280 278 293 292 312 303 300 297 303 301 315 316 316 320 322 327 329 330 332 335 338 341 347 350 360 359 0 10 17 20 25 30 41 59 67 71 76 80 87 87 92
252 259 265 272 281 274 269 294 301 305 305 305 307 306 306 312 316 321 326 330 333 332 335 339 342 347 350 4 5 14 31 36 32 35 43 55 63 66 72 77 80 81 84